When you browse on this site, cookies collect data to enhance your experience and personalize the content and advertising you see.
Visit our Privacy Policy to learn more. By continuing to use the site, you agree to this use of cookies and data.

Stündliche Wetter La Rioja

Heute, 5 Juli, Sonntag

Zeit Temperatur Niederschläge Wind Luftdruck Luftfeuchtigkeit
00:00 +8°C° 0 mm 4 m/S 713 mmHg 66%
01:00 +8°C° 0 mm 3 m/S 713 mmHg 70%
02:00 +7°C° 0 mm 2 m/S 713 mmHg 75%
03:00 +6°C° 0 mm 2 m/S 713 mmHg 77%
04:00 +7°C° 0 mm 1 m/S 713 mmHg 79%
05:00 +6°C° 0 mm 1 m/S 714 mmHg 81%
06:00 +7°C° 0 mm 1 m/S 714 mmHg 78%
07:00 +7°C° 0 mm 1 m/S 714 mmHg 76%
08:00 +8°C° 0 mm 1 m/S 715 mmHg 71%
09:00 +9°C° 0 mm 2 m/S 715 mmHg 65%
10:00 +10°C° 0 mm 2 m/S 715 mmHg 58%
11:00 +12°C° 0 mm 3 m/S 716 mmHg 51%
12:00 +12°C° 0 mm 3 m/S 715 mmHg 49%
13:00 +13°C° 0 mm 3 m/S 714 mmHg 47%
14:00 +13°C° 0 mm 3 m/S 714 mmHg 45%
15:00 +14°C° 0 mm 2 m/S 714 mmHg 46%
16:00 +14°C° 0 mm 2 m/S 715 mmHg 48%
17:00 +14°C° 0 mm 2 m/S 715 mmHg 49%
18:00 +12°C° 0 mm 2 m/S 715 mmHg 54%
19:00 +10°C° 0 mm 2 m/S 716 mmHg 59%
20:00 +10°C° 0 mm 1 m/S 717 mmHg 64%
21:00 +9°C° 0 mm 1 m/S 717 mmHg 66%
22:00 +9°C° 0 mm 1 m/S 717 mmHg 67%
23:00 +8°C° 0 mm 1 m/S 718 mmHg 69%

Morgen, 6 Juli, Montag

Zeit Temperatur Niederschläge Wind Luftdruck Luftfeuchtigkeit
00:00 +8°C° 0 mm 1 m/S 718 mmHg 72%
01:00 +8°C° 0 mm 1 m/S 717 mmHg 74%
02:00 +7°C° 0 mm 1 m/S 717 mmHg 77%
03:00 +7°C° 0 mm 1 m/S 717 mmHg 78%
04:00 +7°C° 0 mm 1 m/S 717 mmHg 80%
05:00 +6°C° 0 mm 1 m/S 717 mmHg 81%
06:00 +7°C° 0 mm 1 m/S 718 mmHg 81%
07:00 +7°C° 0 mm 1 m/S 718 mmHg 80%
08:00 +8°C° 0 mm 1 m/S 718 mmHg 79%
09:00 +9°C° 0 mm 1 m/S 718 mmHg 75%
10:00 +10°C° 0 mm 1 m/S 718 mmHg 70%
11:00 +11°C° 0 mm 1 m/S 717 mmHg 66%
12:00 +12°C° 0 mm 1 m/S 717 mmHg 64%
13:00 +12°C° 0 mm 1 m/S 716 mmHg 62%
14:00 +13°C° 0 mm 1 m/S 715 mmHg 60%
15:00 +13°C° 0 mm 1 m/S 714 mmHg 61%
16:00 +12°C° 0 mm 2 m/S 714 mmHg 61%
17:00 +12°C° 0 mm 2 m/S 714 mmHg 62%
18:00 +12°C° 0 mm 2 m/S 715 mmHg 64%
19:00 +10°C° 0 mm 2 m/S 715 mmHg 66%
20:00 +10°C° 0 mm 2 m/S 716 mmHg 67%
21:00 +9°C° 0 mm 2 m/S 716 mmHg 67%
22:00 +10°C° 0 mm 1 m/S 716 mmHg 66%
23:00 +10°C° 0 mm 1 m/S 717 mmHg 66%

übermorgen, 7 Juli, Dienstag

Zeit Temperatur Niederschläge Wind Luftdruck Luftfeuchtigkeit
00:00 +9°C° 0 mm 2 m/S 717 mmHg 65%
01:00 +9°C° 0 mm 2 m/S 716 mmHg 65%
02:00 +9°C° 0 mm 2 m/S 716 mmHg 64%
03:00 +8°C° 0 mm 2 m/S 716 mmHg 65%
04:00 +8°C° 0 mm 2 m/S 716 mmHg 66%
05:00 +9°C° 0 mm 1 m/S 716 mmHg 67%
06:00 +9°C° 0 mm 1 m/S 717 mmHg 69%
07:00 +8°C° 0 mm 1 m/S 717 mmHg 70%
08:00 +8°C° 0 mm 1 m/S 717 mmHg 72%
09:00 +8°C° 0 mm 2 m/S 717 mmHg 67%
10:00 +10°C° 0 mm 2 m/S 717 mmHg 61%
11:00 +12°C° 0 mm 2 m/S 717 mmHg 56%
12:00 +13°C° 0 mm 2 m/S 717 mmHg 54%
13:00 +13°C° 0 mm 2 m/S 716 mmHg 52%
14:00 +14°C° 0 mm 2 m/S 715 mmHg 49%
15:00 +14°C° 0 mm 2 m/S 715 mmHg 50%
16:00 +13°C° 0 mm 2 m/S 715 mmHg 51%
17:00 +13°C° 0 mm 2 m/S 715 mmHg 52%
18:00 +12°C° 0 mm 2 m/S 716 mmHg 58%
19:00 +9°C° 0 mm 2 m/S 716 mmHg 65%
20:00 +9°C° 0 mm 1 m/S 717 mmHg 71%
21:00 +8°C° 0 mm 1 m/S 717 mmHg 73%
22:00 +8°C° 0 mm 1 m/S 717 mmHg 75%
23:00 +7°C° 0 mm 1 m/S 717 mmHg 77%

8 Juli, Mittwoch

Zeit Temperatur Niederschläge Wind Luftdruck Luftfeuchtigkeit
00:00 +7°C° 0 mm 1 m/S 717 mmHg 78%
01:00 +6°C° 0 mm 1 m/S 717 mmHg 79%
02:00 +5°C° 0 mm 0 m/S 717 mmHg 80%
03:00 +5°C° 0 mm 0 m/S 716 mmHg 80%
04:00 +5°C° 0 mm 1 m/S 716 mmHg 81%
05:00 +5°C° 0 mm 1 m/S 715 mmHg 81%
06:00 +6°C° 0 mm 1 m/S 716 mmHg 79%
07:00 +6°C° 0 mm 1 m/S 716 mmHg 76%
08:00 +6°C° 0 mm 1 m/S 716 mmHg 74%
09:00 +9°C° 0 mm 1 m/S 716 mmHg 65%
10:00 +10°C° 0 mm 2 m/S 716 mmHg 56%
11:00 +13°C° 0 mm 2 m/S 716 mmHg 47%
12:00 +14°C° 0 mm 2 m/S 716 mmHg 43%
13:00 +16°C° 0 mm 2 m/S 715 mmHg 40%
14:00 +17°C° 0 mm 2 m/S 714 mmHg 37%
15:00 +17°C° 0 mm 2 m/S 714 mmHg 37%
16:00 +16°C° 0 mm 2 m/S 714 mmHg 38%
17:00 +16°C° 0 mm 2 m/S 714 mmHg 39%
18:00 +14°C° 0 mm 2 m/S 715 mmHg 45%
19:00 +12°C° 0 mm 2 m/S 715 mmHg 51%
20:00 +10°C° 0 mm 2 m/S 716 mmHg 57%
21:00 +9°C° 0 mm 2 m/S 716 mmHg 62%
22:00 +8°C° 0 mm 3 m/S 717 mmHg 66%
23:00 +8°C° 0 mm 3 m/S 717 mmHg 70%

9 Juli, Donnerstag

Zeit Temperatur Niederschläge Wind Luftdruck Luftfeuchtigkeit
00:00 +7°C° 0 mm 3 m/S 717 mmHg 71%
01:00 +7°C° 0 mm 2 m/S 717 mmHg 73%
02:00 +7°C° 0 mm 2 m/S 717 mmHg 74%
03:00 +6°C° 0 mm 2 m/S 717 mmHg 76%
04:00 +6°C° 0 mm 2 m/S 717 mmHg 78%
05:00 +5°C° 0 mm 2 m/S 716 mmHg 79%
06:00 +5°C° 0 mm 2 m/S 717 mmHg 79%
07:00 +5°C° 0 mm 2 m/S 717 mmHg 79%
08:00 +6°C° 0 mm 2 m/S 717 mmHg 79%
09:00 +7°C° 0 mm 2 m/S 717 mmHg 71%
10:00 +9°C° 0 mm 2 m/S 717 mmHg 63%
11:00 +11°C° 0 mm 3 m/S 717 mmHg 54%
12:00 +13°C° 0 mm 2 m/S 716 mmHg 52%
13:00 +14°C° 0 mm 2 m/S 715 mmHg 49%
14:00 +15°C° 0 mm 2 m/S 714 mmHg 47%
15:00 +15°C° 0 mm 2 m/S 714 mmHg 47%
16:00 +15°C° 0 mm 1 m/S 714 mmHg 46%
17:00 +15°C° 0 mm 1 m/S 713 mmHg 46%
18:00 +13°C° 0 mm 1 m/S 713 mmHg 52%
19:00 +12°C° 0 mm 1 m/S 714 mmHg 58%
20:00 +10°C° 0 mm 1 m/S 714 mmHg 63%
21:00 +10°C° 0 mm 1 m/S 713 mmHg 65%
22:00 +9°C° 0 mm 1 m/S 713 mmHg 67%
23:00 +9°C° 0 mm 1 m/S 713 mmHg 69%

10 Juli, Freitag

Zeit Temperatur Niederschläge Wind Luftdruck Luftfeuchtigkeit
00:00 +9°C° 0 mm 1 m/S 713 mmHg 71%
01:00 +8°C° 0 mm 1 m/S 713 mmHg 73%
02:00 +8°C° 0 mm 1 m/S 713 mmHg 74%
03:00 +7°C° 0 mm 2 m/S 713 mmHg 75%
04:00 +7°C° 0 mm 2 m/S 713 mmHg 75%
05:00 +6°C° 0 mm 2 m/S 713 mmHg 75%
06:00 +6°C° 0 mm 2 m/S 714 mmHg 75%
07:00 +6°C° 0 mm 2 m/S 715 mmHg 76%
08:00 +8°C° 0 mm 1 m/S 715 mmHg 76%
09:00 +9°C° 0 mm 2 m/S 716 mmHg 67%
10:00 +12°C° 0 mm 2 m/S 717 mmHg 58%
11:00 +15°C° 0 mm 2 m/S 717 mmHg 49%
12:00 +16°C° 0 mm 2 m/S 717 mmHg 47%
13:00 +16°C° 0 mm 2 m/S 716 mmHg 45%
14:00 +17°C° 0 mm 3 m/S 716 mmHg 42%
15:00 +17°C° 0 mm 2 m/S 716 mmHg 45%
16:00 +16°C° 0 mm 2 m/S 715 mmHg 47%
17:00 +16°C° 0 mm 1 m/S 715 mmHg 50%
18:00 +14°C° 0 mm 1 m/S 716 mmHg 56%
19:00 +13°C° 0 mm 1 m/S 716 mmHg 62%
20:00 +11°C° 0 mm 1 m/S 716 mmHg 69%
21:00 +11°C° 0 mm 1 m/S 717 mmHg 71%
22:00 +10°C° 0 mm 1 m/S 717 mmHg 73%
23:00 +10°C° 0 mm 1 m/S 717 mmHg 75%
Mehr zeigen